Terug naar catalogus

COSMOS 1275 DEB

ActiefPO
NORAD 12715·DEBRIS·🇷🇺 Russia

Gelanceerd Jun 4, 1981 vanaf Plesetsk Cosmodrome

Loading…

Volgende Passages (komende 24 uur)

TLE

VersSource: Space-Track

Epoch: Sep 14, 2026, 08:36 UTC

1 12715U 81053BK  26257.35839994  .00001403  00000-0  48511-3 0  9995
2 12715  83.1064  26.1819 0058947 313.0903  75.2124 14.34216587328240

Volg COSMOS 1275 DEB in realtime met AllMySat

Download on the App Store